COSMOS 2251 DEB, 34728

Orbit data source: Space-Track

COSMOS 2251 DEB, 34728 is space debris in LEO originally from a launch on Wed, 16 Jun 1993 UTC launched from the Plesetsk Missile And Space Complex (PKMTR). The debris from Iridium 33, an American commercial communications satellite, has been tracked extensively since its accidental collision with the defunct Russian satellite Cosmos 2251 in 2009. This event, occurring at high speed in low Earth orbit (LEO), generated thousands of pieces of space debris, significantly increasing the risk of further collisions. The Iridium 33 debris cloud has impacted space traffic management and orbital debris mitigation strategies, making it a subject of ongoing study in space situational awareness.

Loading next visibility...
Identifier
34728, 1993-036YW
Orbit
LEO
Country
Flag of CISCIS
Related business
Manufacturer
Unknown
Mission
Spacecraft
Bus & Motor
Unknown
Mass
Unknown
Launch date (UTC)
1993-06-16 (33 years ago)
Launch vehicle
Unknown
Launch site
Plesetsk Missile And Space Complex (PKMTR)
Object type
Payload
Rocket body
Debris
Shape & HBR
Unknown shape, 0.1 m
Radar Cross Section
Small (<0.1 m²)

Expand to show TLE details & history
Last TLE update: 18 hours ago

TLE from 18 hours ago
0 COSMOS 2251 DEB
1 34728U 93036YW  26237.64378784  .00002216  00000-0  34761-3 0  9997
2 34728  74.0144 113.4891 0042539 208.0513 151.8367 14.72708703925652
Epoch: 2026-08-25T15:27Z
TLE epoch observation values (Epoch: 2026-08-25T15:27:03.269Z)
Latitude
-0.00007°
Longitude
-92.18273°
Altitude
681.488 km
Speed
7.502 km/s
True Right ascension
07h 33m 57s
True Declination
0° 00' 00"
Sunlit
Object was in daylight at epoch
Visualization orbit readout
Latitude
Unknown
Longitude
Unknown
Altitude
Unknown
Speed
Unknown
Apparent Right ascension
Unknown
Apparent Declination
Unknown
Sunlit
N/A
Visualization observer readout
Local Sidereal Time
00:34:26
Azimuth
Unknown
Elevation
Unknown
Doppler factor
Unknown
Orbital elements
Apogee altitude
679.917 km
Perigee altitude
620.122 km
Semi-major axis
7,028.156 km
Eccentricity
0.00425
Inclination
74.0144°
RAAN
113.4891°
Arg. of periapsis
208.0513°
True anomaly
152.0657°
Mean anomaly
151.8367°
Eccentric anomaly
151.95131°
Mean motion
3.68367 °/min
Orbital period
97.73 mins
BSTAR
0.00034761
Loading maneuver chart data...
Computing Atmospheric mass density...
Loading historical data...
Loading historical data...
Loading historical data...
Loading historical data...
Loading historical data...
Loading historical data...
Loading historical data...

Documentation

Showing up to 5 results
|